QPF
0.01 0.01 0.02 0.03 0.04 0.05 0.06 0.05 0.03 0.04 0.03 0.03 0.03 0.03 0.02 0.02 0.02 0.02 0.03 0.03 0.03 0.03 0.04 0.06 0.06 0.05 0.03 0.02 0.02 0.02 0.01 0.01 0.02 0.02 0.01 0.02 0.02 0.05 0.03 0.02 0.02 0.03 0.04
0.01 0.02 0.03 0.03 0.04 0.05 0.06 0.06 0.04 0.03 0.03 0.03 0.04 0.03 0.03 0.03 0.02 0.02 0.02 0.03 0.03 0.03 0.04 0.04 0.04 0.04 0.03 0.02 0.02 0.02 0.02 0.01 0.01 0.02 0.01 0.01 0.01 0.03 0.03 0.02 0.02 0.04 0.05
0.01 0.02 0.03 0.04 0.04 0.05 0.06 0.06 0.04 0.03 0.02 0.02 0.03 0.03 0.03 0.03 0.03 0.02 0.02 0.02 0.02 0.03 0.03 0.02 0.02 0.02 0.03 0.02 0.02 0.02 0.02 0.01 0.01 0.01 0.01 0.01 0.01 0.02 0.03 0.02 0.03 0.05 0.04
0.01 0.02 0.02 0.04 0.05 0.04 0.04 0.05 0.05 0.04 0.03 0.02 0.02 0.03 0.03 0.03 0.03 0.04 0.03 0.02 0.02 0.02 0.02 0.01 0.02 0.02 0.02 0.03 0.02 0.02 0.01 0.01 0.01 0.01 0.01 0.00 0.01 0.02 0.03 0.03 0.03 0.04 0.04
0.02 0.02 0.03 0.04 0.05 0.05 0.05 0.06 0.05 0.04 0.03 0.03 0.02 0.02 0.03 0.03 0.03 0.04 0.05 0.04 0.03 0.02 0.02 0.01 0.01 0.02 0.01 0.02 0.02 0.02 0.01 0.01 0.01 0.01 0.01 0.01 0.01 0.02 0.03 0.04 0.04 0.04 0.05
0.02 0.02 0.03 0.05 0.06 0.06 0.06 0.05 0.06 0.03 0.02 0.01 0.02 0.02 0.02 0.03 0.03 0.03 0.03 0.03 0.03 0.03 0.03 0.02 0.02 0.02 0.01 0.02 0.03 0.02 0.01 0.01 0.01 0.01 0.01 0.01 0.02 0.03 0.03 0.04 0.04 0.05 0.05
0.02 0.01 0.02 0.04 0.05 0.07 0.07 0.04 0.03 0.02 0.02 0.01 0.02 0.02 0.01 0.02 0.02 0.02 0.02 0.02 0.02 0.03 0.03 0.02 0.02 0.02 0.02 0.02 0.02 0.02 0.01 0.01 0.00 0.00 0.01 0.01 0.03 0.05 0.05 0.06 0.06 0.06 0.06
0.01 0.01 0.01 0.02 0.03 0.04 0.05 0.05 0.04 0.02 0.02 0.01 0.01 0.01 0.01 0.01 0.01 0.01 0.02 0.03 0.03 0.04 0.04 0.03 0.03 0.03 0.02 0.02 0.02 0.02 0.02 0.01 0.01 0.01 0.01 0.01 0.03 0.06 0.06 0.06 0.07 0.06 0.06
0.01 0.01 0.01 0.01 0.01 0.01 0.02 0.02 0.02 0.02 0.01 0.01 0.01 0.01 0.00 0.01 0.01 0.01 0.01 0.02 0.02 0.03 0.04 0.03 0.03 0.03 0.02 0.02 0.02 0.02 0.02 0.01 0.01 0.00 0.01 0.01 0.03 0.04 0.05 0.05 0.06 0.07 0.05
0.01 0.02 0.01 0.01 0.01 0.01 0.01 0.01 0.01 0.02 0.01 0.01 0.01 0.01 0.01 0.01 0.00 0.01 0.01 0.01 0.02 0.02 0.04 0.03 0.03 0.03 0.03 0.03 0.02 0.02 0.02 0.01 0.01 0.01 0.01 0.01 0.02 0.04 0.05 0.04 0.05 0.06 0.05
0.02 0.01 0.01 0.01 0.01 0.01 0.01 0.01 0.01 0.01 0.02 0.02 0.01 0.01 0.01 0.01 0.00 0.00 0.01 0.01 0.01 0.02 0.03 0.03 0.02 0.02 0.02 0.02 0.02 0.02 0.03 0.02 0.01 0.01 0.01 0.01 0.03 0.05 0.04 0.04 0.04 0.05 0.06
0.02 0.01 0.01 0.01 0.01 0.01 0.01 0.01 0.01 0.01 0.01 0.02 0.01 0.01 0.00 0.00 0.01 0.01 0.01 0.01 0.01 0.01 0.02 0.04 0.04 0.02 0.03 0.02 0.02 0.03 0.03 0.02 0.02 0.01 0.01 0.02 0.03 0.04 0.05 0.04 0.04 0.04 0.06
0.01 0.01 0.01 0.01 0.01 0.01 0.01 0.01 0.01 0.01 0.01 0.02 0.01 0.01 0.01 0.01 0.01 0.01 0.01 0.01 0.01 0.01 0.02 0.03 0.05 0.05 0.04 0.02 0.02 0.02 0.02 0.02 0.02 0.02 0.01 0.02 0.03 0.04 0.06 0.04 0.04 0.04 0.05
0.01 0.01 0.01 0.00 0.01 0.01 0.01 0.01 0.01 0.01 0.01 0.01 0.01 0.01 0.01 0.01 0.01 0.01 0.01 0.01 0.02 0.02 0.02 0.02 0.03 0.07 0.08 0.06 0.04 0.03 0.03 0.02 0.01 0.02 0.02 0.02 0.02 0.03 0.04 0.05 0.04 0.05 0.05
0.01 0.01 0.01 0.01 0.01 0.01 0.00 0.00 0.01 0.01 0.01 0.01 0.01 0.01 0.01 0.01 0.01 0.01 0.01 0.02 0.01 0.02 0.02 0.02 0.02 0.03 0.08 0.09 0.07 0.05 0.05 0.03 0.02 0.02 0.02 0.02 0.02 0.02 0.02 0.04 0.05 0.06 0.06
0.01 0.01 0.01 0.01 0.01 0.01 0.00 0.00 0.01 0.01 0.02 0.02 0.01 0.01 0.01 0.01 0.01 0.01 0.01 0.02 0.01 0.01 0.01 0.02 0.02 0.02 0.05 0.08 0.08 0.06 0.05 0.04 0.03 0.03 0.02 0.02 0.02 0.02 0.02 0.04 0.04 0.05 0.06
0.01 0.01 0.01 0.02 0.02 0.01 0.01 0.00 0.01 0.01 0.01 0.02 0.02 0.01 0.01 0.01 0.01 0.01 0.01 0.01 0.01 0.01 0.01 0.02 0.02 0.02 0.03 0.06 0.08 0.07 0.05 0.04 0.03 0.03 0.02 0.02 0.02 0.02 0.02 0.02 0.03 0.05 0.06
0.01 0.01 0.01 0.02 0.02 0.02 0.01 0.01 0.01 0.01 0.01 0.02 0.02 0.02 0.02 0.01 0.01 0.01 0.01 0.01 0.01 0.00 0.01 0.01 0.01 0.01 0.02 0.04 0.05 0.05 0.05 0.04 0.03 0.03 0.02 0.02 0.02 0.01 0.01 0.02 0.02 0.03 0.05
0.01 0.01 0.01 0.01 0.02 0.02 0.02 0.01 0.01 0.01 0.02 0.02 0.03 0.02 0.02 0.02 0.01 0.01 0.01 0.01 0.01 0.01 0.01 0.01 0.01 0.01 0.02 0.03 0.04 0.05 0.04 0.04 0.03 0.03 0.02 0.02 0.02 0.01 0.01 0.01 0.01 0.02 0.03
0.01 0.01 0.01 0.01 0.01 0.02 0.03 0.02 0.01 0.01 0.01 0.02 0.03 0.05 0.02 0.02 0.02 0.01 0.01 0.01 0.01 0.01 0.01 0.01 0.02 0.02 0.02 0.03 0.04 0.06 0.05 0.04 0.03 0.03 0.03 0.03 0.03 0.02 0.01 0.01 0.01 0.01 0.02
0.01 0.01 0.01 0.01 0.01 0.02 0.02 0.02 0.02 0.01 0.01 0.02 0.03 0.04 0.05 0.02 0.02 0.02 0.01 0.01 0.01 0.01 0.01 0.01 0.02 0.03 0.05 0.06 0.07 0.08 0.08 0.06 0.04 0.03 0.03 0.03 0.03 0.03 0.02 0.02 0.01 0.01 0.01
0.01 0.01 0.01 0.01 0.01 0.01 0.02 0.02 0.02 0.01 0.01 0.01 0.03 0.03 0.05 0.05 0.03 0.02 0.02 0.01 0.01 0.01 0.01 0.01 0.01 0.02 0.04 0.06 0.08 0.08 0.09 0.09 0.08 0.05 0.04 0.03 0.03 0.03 0.03 0.02 0.01 0.01 0.01
0.01 0.01 0.01 0.01 0.01 0.01 0.03 0.04 0.03 0.03 0.02 0.02 0.02 0.03 0.03 0.05 0.05 0.03 0.02 0.01 0.01 0.01 0.01 0.01 0.01 0.01 0.02 0.04 0.05 0.06 0.07 0.07 0.07 0.06 0.05 0.04 0.04 0.04 0.04 0.04 0.03 0.02 0.01
0.01 0.01 0.01 0.01 0.01 0.02 0.04 0.05 0.05 0.04 0.03 0.02 0.02 0.01 0.02 0.05 0.07 0.06 0.04 0.02 0.01 0.01 0.02 0.01 0.01 0.01 0.02 0.03 0.03 0.04 0.05 0.04 0.04 0.05 0.05 0.04 0.04 0.04 0.05 0.04 0.04 0.03 0.03
0.01 0.01 0.02 0.02 0.02 0.02 0.04 0.05 0.05 0.05 0.03 0.03 0.02 0.01 0.01 0.02 0.05 0.07 0.07 0.05 0.03 0.02 0.02 0.02 0.02 0.01 0.02 0.03 0.03 0.03 0.04 0.04 0.03 0.03 0.03 0.04 0.04 0.05 0.04 0.04 0.04 0.04 0.03
0.00 0.01 0.01 0.02 0.02 0.02 0.04 0.05 0.05 0.05 0.04 0.03 0.02 0.02 0.01 0.02 0.03 0.04 0.05 0.06 0.05 0.04 0.02 0.02 0.02 0.02 0.02 0.03 0.03 0.02 0.03 0.04 0.04 0.03 0.03 0.03 0.04 0.05 0.05 0.04 0.04 0.04 0.04
MSLP
1020.08 1019.80 1019.52 1019.28 1019.08 1018.92 1018.78 1018.62 1018.42 1018.15 1017.83 1017.47 1017.10 1016.76 1016.48 1016.28 1016.13 1016.04 1015.95 1015.86 1015.73 1015.56 1015.36 1015.14 1014.92 1014.73 1014.57 1014.45 1014.36 1014.30 1014.25 1014.21 1014.16 1014.11 1014.05 1013.98 1013.90 1013.81 1013.71 1013.61 1013.50 1013.41 1013.34
1020.07 1019.76 1019.45 1019.19 1019.00 1018.86 1018.75 1018.64 1018.49 1018.28 1018.00 1017.70 1017.39 1017.11 1016.88 1016.73 1016.63 1016.57 1016.51 1016.43 1016.29 1016.11 1015.88 1015.62 1015.35 1015.09 1014.86 1014.66 1014.50 1014.38 1014.28 1014.21 1014.15 1014.10 1014.05 1014.00 1013.93 1013.85 1013.75 1013.63 1013.52 1013.41 1013.33
1020.00 1019.64 1019.29 1019.02 1018.83 1018.72 1018.67 1018.62 1018.54 1018.40 1018.21 1017.97 1017.73 1017.51 1017.33 1017.22 1017.15 1017.10 1017.04 1016.95 1016.80 1016.60 1016.33 1016.03 1015.72 1015.40 1015.11 1014.85 1014.63 1014.46 1014.32 1014.22 1014.15 1014.10 1014.05 1014.01 1013.95 1013.87 1013.76 1013.62 1013.49 1013.37 1013.29
1019.93 1019.51 1019.13 1018.85 1018.68 1018.61 1018.61 1018.63 1018.62 1018.56 1018.44 1018.28 1018.10 1017.93 1017.80 1017.70 1017.64 1017.58 1017.50 1017.39 1017.21 1016.97 1016.68 1016.35 1016.01 1015.66 1015.33 1015.03 1014.77 1014.56 1014.39 1014.26 1014.17 1014.11 1014.07 1014.01 1013.94 1013.84 1013.72 1013.57 1013.41 1013.28 1013.19
1019.92 1019.46 1019.06 1018.78 1018.63 1018.60 1018.65 1018.72 1018.78 1018.79 1018.73 1018.63 1018.50 1018.37 1018.25 1018.16 1018.08 1017.99 1017.88 1017.72 1017.51 1017.24 1016.93 1016.59 1016.24 1015.88 1015.54 1015.23 1014.95 1014.70 1014.50 1014.35 1014.23 1014.15 1014.07 1014.00 1013.90 1013.77 1013.61 1013.44 1013.27 1013.12 1013.03
1020.02 1019.55 1019.15 1018.89 1018.76 1018.76 1018.84 1018.95 1019.04 1019.09 1019.07 1019.00 1018.90 1018.79 1018.68 1018.58 1018.47 1018.34 1018.19 1017.99 1017.74 1017.45 1017.14 1016.80 1016.46 1016.12 1015.79 1015.48 1015.19 1014.92 1014.69 1014.49 1014.33 1014.20 1014.07 1013.94 1013.80 1013.63 1013.44 1013.24 1013.05 1012.90 1012.81
1020.25 1019.80 1019.43 1019.20 1019.10 1019.12 1019.21 1019.33 1019.42 1019.47 1019.46 1019.40 1019.32 1019.22 1019.11 1018.99 1018.85 1018.69 1018.49 1018.25 1017.98 1017.68 1017.37 1017.05 1016.74 1016.43 1016.12 1015.82 1015.52 1015.22 1014.95 1014.70 1014.47 1014.26 1014.06 1013.86 1013.65 1013.43 1013.19 1012.96 1012.75 1012.60 1012.53
1020.58 1020.18 1019.87 1019.69 1019.63 1019.66 1019.74 1019.83 1019.89 1019.91 1019.89 1019.83 1019.75 1019.65 1019.55 1019.42 1019.27 1019.07 1018.84 1018.57 1018.28 1017.98 1017.68 1017.39 1017.11 1016.83 1016.55 1016.25 1015.94 1015.61 1015.28 1014.95 1014.64 1014.34 1014.05 1013.76 1013.48 1013.18 1012.89 1012.62 1012.40 1012.25 1012.19
1020.95 1020.64 1020.42 1020.30 1020.27 1020.30 1020.36 1020.40 1020.42 1020.40 1020.36 1020.29 1020.21 1020.13 1020.03 1019.91 1019.75 1019.54 1019.29 1019.00 1018.70 1018.40 1018.11 1017.84 1017.59 1017.34 1017.07 1016.76 1016.43 1016.05 1015.65 1015.24 1014.83 1014.44 1014.05 1013.67 1013.29 1012.93 1012.58 1012.27 1012.02 1011.86 1011.80
1021.31 1021.11 1020.98 1020.93 1020.94 1020.97 1021.00 1021.00 1020.97 1020.91 1020.84 1020.77 1020.71 1020.65 1020.57 1020.47 1020.31 1020.10 1019.83 1019.53 1019.22 1018.92 1018.64 1018.38 1018.14 1017.90 1017.63 1017.31 1016.93 1016.50 1016.03 1015.54 1015.03 1014.54 1014.05 1013.58 1013.13 1012.69 1012.28 1011.92 1011.63 1011.44 1011.36
1021.61 1021.52 1021.49 1021.52 1021.56 1021.59 1021.60 1021.56 1021.49 1021.41 1021.33 1021.27 1021.24 1021.20 1021.16 1021.08 1020.94 1020.72 1020.45 1020.14 1019.81 1019.50 1019.21 1018.96 1018.72 1018.47 1018.18 1017.82 1017.40 1016.91 1016.37 1015.80 1015.21 1014.63 1014.06 1013.52 1012.99 1012.48 1012.00 1011.58 1011.24 1011.00 1010.89
1021.84 1021.85 1021.91 1022.00 1022.07 1022.11 1022.10 1022.05 1021.97 1021.88 1021.81 1021.78 1021.78 1021.79 1021.78 1021.72 1021.59 1021.38 1021.10 1020.77 1020.42 1020.09 1019.79 1019.51 1019.25 1018.97 1018.65 1018.26 1017.78 1017.23 1016.62 1015.98 1015.33 1014.68 1014.06 1013.45 1012.87 1012.30 1011.76 1011.28 1010.86 1010.56 1010.38
1022.02 1022.11 1022.24 1022.36 1022.46 1022.51 1022.50 1022.45 1022.38 1022.31 1022.28 1022.29 1022.33 1022.38 1022.40 1022.36 1022.24 1022.02 1021.72 1021.37 1021.00 1020.64 1020.31 1020.01 1019.71 1019.39 1019.01 1018.57 1018.03 1017.42 1016.75 1016.06 1015.36 1014.67 1014.00 1013.36 1012.73 1012.12 1011.52 1010.97 1010.48 1010.10 1009.83
1022.19 1022.32 1022.48 1022.63 1022.74 1022.80 1022.80 1022.77 1022.73 1022.70 1022.72 1022.78 1022.86 1022.95 1022.99 1022.96 1022.83 1022.60 1022.28 1021.91 1021.52 1021.13 1020.77 1020.42 1020.08 1019.70 1019.26 1018.75 1018.15 1017.47 1016.75 1016.01 1015.27 1014.56 1013.87 1013.20 1012.55 1011.90 1011.26 1010.65 1010.09 1009.61 1009.26
1022.37 1022.52 1022.68 1022.83 1022.94 1023.01 1023.04 1023.04 1023.04 1023.07 1023.14 1023.24 1023.37 1023.47 1023.52 1023.48 1023.34 1023.10 1022.76 1022.37 1021.96 1021.56 1021.16 1020.77 1020.37 1019.93 1019.42 1018.83 1018.15 1017.41 1016.63 1015.84 1015.06 1014.33 1013.62 1012.95 1012.28 1011.62 1010.95 1010.29 1009.67 1009.12 1008.67
1022.58 1022.72 1022.87 1023.00 1023.11 1023.18 1023.24 1023.28 1023.34 1023.42 1023.54 1023.68 1023.83 1023.93 1023.98 1023.92 1023.77 1023.51 1023.16 1022.77 1022.35 1021.93 1021.52 1021.10 1020.65 1020.14 1019.55 1018.87 1018.10 1017.28 1016.43 1015.58 1014.76 1014.00 1013.28 1012.60 1011.92 1011.25 1010.57 1009.88 1009.22 1008.62 1008.10
1022.79 1022.92 1023.05 1023.16 1023.26 1023.34 1023.42 1023.52 1023.62 1023.76 1023.92 1024.08 1024.23 1024.33 1024.35 1024.27 1024.10 1023.83 1023.49 1023.11 1022.71 1022.30 1021.88 1021.44 1020.94 1020.37 1019.70 1018.93 1018.07 1017.16 1016.22 1015.30 1014.43 1013.63 1012.88 1012.18 1011.51 1010.83 1010.15 1009.46 1008.77 1008.14 1007.58
1022.94 1023.08 1023.19 1023.29 1023.39 1023.49 1023.60 1023.74 1023.90 1024.08 1024.26 1024.43 1024.57 1024.64 1024.63 1024.53 1024.35 1024.08 1023.77 1023.42 1023.06 1022.68 1022.28 1021.83 1021.31 1020.68 1019.94 1019.08 1018.13 1017.12 1016.10 1015.09 1014.15 1013.29 1012.50 1011.78 1011.09 1010.41 1009.73 1009.04 1008.36 1007.71 1007.12
1022.97 1023.13 1023.25 1023.36 1023.47 1023.60 1023.76 1023.94 1024.14 1024.35 1024.55 1024.71 1024.82 1024.86 1024.82 1024.70 1024.51 1024.27 1023.99 1023.70 1023.39 1023.07 1022.70 1022.27 1021.73 1021.08 1020.28 1019.36 1018.33 1017.24 1016.12 1015.04 1014.02 1013.09 1012.25 1011.48 1010.76 1010.08 1009.39 1008.70 1008.02 1007.35 1006.73
1022.83 1023.04 1023.20 1023.34 1023.48 1023.65 1023.85 1024.08 1024.32 1024.55 1024.75 1024.90 1024.97 1024.98 1024.90 1024.77 1024.58 1024.37 1024.15 1023.92 1023.69 1023.43 1023.12 1022.72 1022.21 1021.55 1020.73 1019.77 1018.69 1017.54 1016.36 1015.20 1014.11 1013.11 1012.20 1011.38 1010.62 1009.89 1009.19 1008.48 1007.78 1007.09 1006.43
1022.51 1022.79 1023.00 1023.19 1023.39 1023.61 1023.86 1024.14 1024.41 1024.66 1024.85 1024.98 1025.02 1024.99 1024.89 1024.75 1024.57 1024.40 1024.23 1024.07 1023.92 1023.73 1023.49 1023.15 1022.68 1022.05 1021.25 1020.29 1019.21 1018.04 1016.83 1015.63 1014.48 1013.41 1012.43 1011.54 1010.71 1009.93 1009.17 1008.42 1007.66 1006.91 1006.17
1022.03 1022.39 1022.68 1022.93 1023.19 1023.47 1023.78 1024.10 1024.40 1024.66 1024.85 1024.96 1024.97 1024.91 1024.79 1024.64 1024.48 1024.34 1024.23 1024.13 1024.04 1023.93 1023.76 1023.49 1023.09 1022.52 1021.78 1020.88 1019.84 1018.70 1017.50 1016.30 1015.12 1014.00 1012.95 1011.98 1011.07 1010.21 1009.36 1008.51 1007.66 1006.80 1005.94
1021.45 1021.89 1022.25 1022.57 1022.90 1023.24 1023.61 1023.97 1024.30 1024.57 1024.76 1024.84 1024.84 1024.75 1024.62 1024.47 1024.33 1024.21 1024.14 1024.09 1024.06 1024.01 1023.90 1023.70 1023.38 1022.90 1022.25 1021.45 1020.50 1019.45 1018.31 1017.14 1015.97 1014.82 1013.72 1012.68 1011.67 1010.70 1009.73 1008.76 1007.76 1006.75 1005.73
1020.86 1021.37 1021.79 1022.18 1022.57 1022.97 1023.38 1023.77 1024.13 1024.41 1024.59 1024.67 1024.65 1024.56 1024.42 1024.27 1024.14 1024.04 1023.99 1023.97 1023.97 1023.96 1023.90 1023.76 1023.52 1023.14 1022.61 1021.94 1021.12 1020.19 1019.15 1018.05 1016.92 1015.78 1014.64 1013.53 1012.43 1011.33 1010.23 1009.11 1007.94 1006.75 1005.52
1020.33 1020.89 1021.37 1021.81 1022.25 1022.70 1023.14 1023.57 1023.93 1024.22 1024.40 1024.47 1024.45 1024.36 1024.23 1024.09 1023.97 1023.88 1023.83 1023.81 1023.82 1023.81 1023.78 1023.69 1023.51 1023.23 1022.82 1022.28 1021.61 1020.82 1019.91 1018.92 1017.85 1016.73 1015.58 1014.41 1013.23 1012.03 1010.80 1009.52 1008.18 1006.79 1005.37
1019.91 1020.51 1021.03 1021.52 1022.00 1022.48 1022.96 1023.39 1023.76 1024.05 1024.23 1024.30 1024.28 1024.20 1024.08 1023.95 1023.84 1023.75 1023.69 1023.66 1023.64 1023.62 1023.58 1023.50 1023.37 1023.16 1022.86 1022.45 1021.92 1021.27 1020.49 1019.60 1018.62 1017.54 1016.40 1015.22 1013.98 1012.70 1011.36 1009.95 1008.48 1006.93 1005.33
Thickness
5655 5657 5660 5662 5665 5667 5669 5670 5671 5671 5672 5673 5675 5676 5677 5678 5679 5680 5682 5683 5684 5685 5687 5688 5689 5691 5692 5694 5695 5696 5697 5698 5699 5700 5701 5702 5703 5705 5705 5706 5707 5708 5708
5652 5654 5657 5659 5661 5663 5664 5665 5666 5666 5667 5668 5669 5671 5672 5673 5674 5675 5676 5678 5679 5680 5682 5683 5684 5686 5687 5689 5690 5691 5692 5693 5694 5695 5696 5697 5699 5700 5701 5701 5702 5703 5704
5648 5650 5653 5655 5657 5658 5659 5660 5660 5661 5662 5663 5664 5665 5666 5667 5668 5670 5671 5672 5674 5675 5676 5677 5678 5680 5681 5683 5684 5685 5686 5687 5689 5690 5691 5692 5694 5695 5696 5697 5698 5699 5700
5643 5646 5648 5650 5652 5653 5654 5654 5655 5655 5656 5657 5658 5659 5660 5661 5663 5664 5665 5666 5667 5669 5670 5671 5673 5674 5675 5677 5678 5680 5681 5682 5683 5685 5686 5687 5688 5690 5691 5692 5694 5695 5695
5639 5641 5643 5645 5646 5647 5647 5648 5649 5650 5650 5651 5652 5653 5654 5655 5656 5658 5659 5660 5661 5662 5664 5665 5666 5668 5669 5671 5672 5674 5675 5676 5678 5679 5680 5682 5683 5685 5687 5687 5688 5690 5691
5633 5635 5637 5638 5640 5640 5641 5642 5642 5643 5643 5644 5645 5646 5647 5648 5649 5651 5652 5653 5654 5656 5657 5659 5660 5661 5662 5664 5666 5667 5669 5670 5671 5673 5674 5676 5678 5680 5681 5682 5683 5684 5685
5626 5628 5629 5631 5633 5633 5634 5635 5635 5636 5636 5637 5638 5639 5640 5641 5642 5643 5645 5646 5648 5649 5650 5651 5653 5654 5655 5657 5659 5660 5661 5663 5665 5666 5668 5669 5671 5673 5675 5676 5678 5678 5679
5620 5621 5622 5623 5625 5626 5627 5628 5628 5628 5629 5629 5629 5630 5631 5633 5634 5635 5637 5638 5640 5641 5642 5644 5645 5646 5648 5649 5651 5652 5654 5656 5657 5659 5660 5663 5665 5667 5669 5670 5671 5673 5674
5613 5613 5614 5615 5616 5618 5618 5618 5619 5619 5620 5620 5621 5621 5622 5623 5625 5626 5628 5630 5632 5633 5634 5635 5637 5638 5640 5641 5643 5644 5646 5648 5649 5651 5653 5655 5658 5660 5662 5664 5665 5666 5667
5605 5606 5606 5607 5608 5609 5609 5609 5610 5610 5610 5611 5611 5612 5612 5614 5615 5617 5618 5620 5622 5624 5625 5627 5628 5629 5631 5632 5634 5636 5638 5639 5641 5643 5645 5647 5650 5653 5655 5656 5658 5660 5661
5597 5598 5599 5599 5600 5600 5600 5600 5600 5600 5600 5601 5601 5602 5603 5604 5605 5606 5608 5610 5612 5614 5615 5617 5619 5620 5621 5623 5625 5627 5629 5630 5632 5634 5637 5639 5642 5645 5647 5649 5650 5652 5654
5590 5590 5590 5591 5591 5591 5591 5591 5590 5590 5590 5591 5591 5592 5593 5594 5595 5596 5597 5599 5601 5603 5605 5606 5608 5610 5611 5613 5615 5618 5619 5621 5623 5625 5628 5631 5634 5637 5639 5641 5643 5645 5646
5583 5582 5582 5583 5583 5582 5582 5582 5581 5581 5581 5581 5581 5582 5582 5583 5584 5585 5587 5588 5590 5592 5594 5595 5597 5599 5601 5603 5605 5607 5609 5612 5614 5616 5619 5622 5625 5628 5630 5632 5634 5636 5638
5576 5575 5575 5575 5574 5573 5573 5572 5571 5571 5571 5571 5571 5571 5572 5572 5573 5574 5575 5577 5578 5580 5582 5584 5586 5588 5590 5592 5595 5597 5600 5602 5604 5607 5609 5613 5616 5618 5621 5623 5625 5627 5629
5568 5567 5566 5566 5565 5565 5564 5563 5562 5562 5561 5560 5560 5560 5560 5561 5562 5563 5564 5565 5567 5569 5570 5572 5574 5577 5579 5582 5584 5587 5589 5592 5595 5597 5599 5602 5605 5608 5611 5613 5616 5618 5620
5562 5560 5559 5558 5556 5555 5554 5553 5552 5551 5550 5550 5550 5549 5549 5550 5551 5551 5553 5554 5556 5557 5559 5560 5562 5565 5567 5570 5573 5575 5578 5581 5584 5586 5589 5591 5594 5597 5599 5602 5605 5607 5610
5555 5553 5551 5549 5547 5546 5545 5544 5542 5540 5539 5539 5538 5538 5539 5539 5540 5541 5541 5543 5544 5545 5547 5549 5550 5553 5555 5558 5561 5564 5566 5570 5573 5575 5578 5580 5582 5584 5587 5589 5592 5595 5598
5547 5545 5542 5541 5538 5537 5535 5533 5531 5530 5529 5527 5527 5527 5527 5527 5528 5529 5529 5530 5532 5534 5535 5537 5538 5540 5542 5545 5548 5551 5554 5558 5561 5563 5565 5568 5570 5571 5574 5576 5579 5582 5585
5539 5536 5533 5531 5529 5527 5525 5523 5521 5520 5517 5516 5515 5515 5514 5515 5515 5516 5517 5517 5519 5521 5523 5524 5525 5526 5529 5532 5536 5539 5542 5545 5548 5550 5552 5554 5556 5557 5559 5562 5564 5567 5571
5530 5527 5524 5522 5519 5516 5514 5512 5510 5508 5506 5504 5503 5503 5502 5502 5503 5503 5503 5504 5506 5507 5509 5510 5511 5513 5515 5518 5523 5526 5529 5532 5535 5537 5538 5539 5541 5542 5545 5547 5550 5552 5556
5519 5517 5514 5512 5509 5506 5503 5501 5498 5495 5494 5492 5491 5491 5490 5490 5490 5490 5490 5490 5491 5493 5494 5495 5497 5499 5501 5504 5508 5512 5516 5519 5521 5522 5522 5524 5525 5526 5529 5531 5534 5537 5540
5509 5506 5504 5501 5499 5496 5493 5490 5488 5485 5482 5480 5478 5477 5477 5477 5476 5476 5476 5476 5477 5478 5479 5480 5482 5484 5485 5488 5489 5493 5498 5503 5504 5506 5506 5507 5508 5509 5512 5514 5517 5520 5524
5499 5497 5495 5492 5489 5486 5482 5479 5476 5473 5470 5468 5466 5465 5464 5464 5463 5462 5462 5462 5462 5463 5464 5465 5466 5468 5469 5471 5472 5473 5476 5480 5483 5489 5489 5490 5490 5492 5494 5497 5500 5504 5507
5491 5487 5484 5481 5478 5475 5471 5468 5465 5462 5459 5456 5454 5452 5451 5451 5449 5449 5448 5448 5448 5448 5449 5449 5450 5451 5453 5454 5454 5455 5455 5457 5460 5468 5472 5472 5473 5474 5476 5480 5483 5487 5490
5481 5477 5474 5470 5467 5464 5461 5457 5454 5450 5447 5444 5442 5440 5439 5437 5436 5435 5434 5434 5434 5434 5434 5434 5434 5435 5437 5437 5437 5438 5439 5440 5441 5444 5452 5455 5456 5457 5459 5462 5466 5469 5473
5470 5467 5463 5459 5456 5452 5449 5445 5443 5439 5436 5433 5430 5428 5426 5424 5423 5422 5421 5420 5420 5419 5419 5419 5419 5419 5420 5421 5421 5421 5422 5424 5425 5426 5430 5435 5438 5441 5443 5446 5449 5452 5456